Wetbulb
63.30 66.88 67.24 68.51 68.67 68.76 67.97 67.96 67.57 66.99 68.05 67.73 65.54 65.23 66.34 67.10 68.80 70.84 71.05 71.30 71.30 68.90 65.20 63.95 64.79 66.70 66.10 67.70 68.42 68.33 65.91 65.76 66.74 61.67 62.96 64.42 65.99 66.06 65.23 67.02 67.67 68.23 70.38
63.11 65.10 67.04 67.79 68.18 68.12 67.62 68.24 67.55 67.69 68.30 67.83 67.61 66.01 66.00 68.52 68.89 68.62 68.30 71.79 70.55 69.85 66.56 64.60 64.74 66.65 66.03 66.16 68.06 68.17 64.76 64.92 65.49 63.42 60.52 58.73 60.72 64.31 64.27 65.91 67.00 66.02 67.99
62.09 64.34 66.03 67.06 67.74 67.57 67.52 68.13 67.69 67.98 68.93 68.81 69.19 68.42 69.16 69.55 69.02 69.11 67.72 69.42 71.97 70.72 68.61 66.67 63.27 66.31 64.88 64.10 64.48 65.71 65.18 62.05 62.67 65.04 60.56 58.02 59.18 60.05 63.20 64.96 66.16 65.97 66.87
63.53 64.83 65.78 66.61 67.16 67.48 68.65 68.67 67.89 68.27 69.77 69.34 67.82 67.25 66.63 66.47 67.99 68.32 69.75 69.41 71.08 69.61 68.47 65.73 65.96 67.79 66.50 63.50 66.13 69.21 66.34 62.79 60.33 63.49 66.99 64.55 61.39 58.25 60.59 65.27 66.54 66.38 66.96
63.24 64.92 65.94 67.02 67.23 68.48 68.59 68.59 68.97 68.85 68.71 68.59 68.36 66.53 66.96 67.35 67.95 68.31 69.14 68.72 70.00 69.78 69.79 68.54 67.33 68.90 68.99 68.70 69.34 70.89 66.76 66.23 64.67 65.07 63.83 64.48 64.53 63.69 61.53 60.66 63.81 66.49 65.93
63.91 64.77 66.59 67.20 66.88 68.81 68.59 68.71 69.11 68.79 68.94 68.57 69.10 68.10 67.43 67.10 66.66 67.14 68.83 69.07 69.55 70.30 70.19 70.00 68.06 69.15 69.73 70.77 71.73 71.28 69.70 69.60 67.26 64.78 64.64 64.98 64.43 63.89 63.23 62.38 63.12 63.35 65.31
62.92 63.71 64.92 65.44 66.43 67.35 68.24 68.61 68.85 68.48 69.07 68.62 68.63 68.98 68.18 67.22 66.80 67.37 68.31 68.60 69.26 69.81 70.72 70.21 69.99 69.85 71.23 71.46 71.21 70.48 69.56 70.10 69.48 67.70 67.24 68.07 67.73 68.07 66.36 63.89 62.99 62.04 62.50
62.91 62.89 64.86 65.79 66.40 67.43 68.47 68.95 68.57 68.75 68.98 68.99 68.63 68.87 68.63 66.77 65.77 67.63 68.67 69.27 69.74 70.35 71.19 71.22 71.16 71.67 71.77 71.37 71.59 71.02 70.52 70.76 70.35 69.17 67.99 68.51 69.46 69.40 68.01 66.06 65.07 62.57 62.00
64.50 63.64 63.20 65.37 66.11 67.01 68.23 68.80 68.71 68.84 69.11 69.26 69.11 68.71 68.14 67.34 65.84 68.05 69.52 70.08 69.85 70.65 70.80 71.50 70.77 69.03 71.54 71.87 71.13 70.91 70.51 70.55 69.82 69.64 69.26 69.01 69.65 69.53 68.82 67.97 67.88 65.01 61.92
64.22 65.12 65.36 64.30 66.83 67.72 68.86 69.28 69.54 69.05 69.58 69.56 69.46 69.85 69.12 68.91 68.76 69.36 69.96 70.50 69.72 70.08 69.67 68.23 68.19 67.91 67.97 70.84 71.03 70.73 70.46 70.28 70.07 70.12 69.75 68.83 69.11 68.92 69.53 69.10 68.98 67.46 65.56
65.69 64.96 65.69 66.60 66.51 67.93 69.37 69.16 69.50 69.28 69.27 69.87 69.86 69.66 70.19 69.88 69.80 70.04 70.16 70.86 70.14 70.00 69.23 68.19 67.93 68.96 69.96 71.46 70.97 70.45 70.48 70.18 69.94 69.73 69.82 69.86 69.97 69.31 70.14 69.71 69.51 68.81 67.78
64.63 65.14 65.25 64.70 66.16 67.23 68.11 68.82 69.69 69.60 69.63 69.84 69.68 70.08 70.44 70.21 69.94 70.36 69.69 70.30 69.67 70.19 69.78 68.42 69.45 70.33 70.69 71.43 71.11 70.66 71.17 70.24 70.21 70.48 69.72 69.76 71.34 69.43 68.93 69.06 68.73 69.10 68.29
64.83 65.25 64.25 63.45 64.69 66.45 65.97 68.74 69.88 69.81 70.12 69.89 69.76 69.99 70.32 70.20 69.80 70.16 70.13 69.25 70.10 70.08 69.54 68.07 68.11 70.37 71.24 70.69 71.02 70.55 71.17 70.86 70.70 70.75 70.48 70.37 69.44 69.00 69.05 68.45 68.45 68.88 69.43
64.06 63.39 63.12 63.04 63.75 64.59 65.74 68.92 69.01 69.85 70.62 69.83 69.88 70.02 70.09 70.21 69.86 69.53 70.03 70.22 69.13 69.27 70.58 70.44 70.23 70.99 70.60 70.58 70.72 70.62 70.27 70.61 71.06 71.40 70.66 70.68 69.87 69.32 69.41 69.19 68.99 68.63 68.68
62.72 64.06 62.24 61.85 62.75 63.22 65.72 67.08 68.22 68.77 69.50 69.43 69.19 69.74 70.56 70.62 70.25 69.53 70.00 70.31 70.22 70.45 70.56 70.68 70.69 71.06 71.04 71.41 70.36 70.63 70.43 70.35 70.58 70.77 70.82 71.00 70.96 70.10 68.74 69.33 68.72 67.66 67.28
60.59 63.71 64.02 62.93 62.68 65.36 65.65 66.65 66.47 68.11 67.80 67.10 67.55 68.27 68.95 69.92 69.99 69.73 69.83 70.04 70.24 70.32 70.48 69.99 70.03 70.03 71.88 69.19 67.37 69.55 69.07 69.35 69.66 69.58 69.79 70.21 69.57 68.32 66.39 66.66 67.59 67.50 66.56
60.04 61.73 62.52 64.20 63.82 64.19 66.60 66.11 66.78 67.39 67.14 67.44 67.86 67.86 67.44 68.23 69.58 69.57 69.23 69.37 69.73 70.04 70.02 69.89 69.86 69.63 68.45 64.44 65.19 67.43 67.75 68.22 68.13 68.00 68.52 70.02 66.22 63.17 64.65 66.11 65.44 63.87 63.01
59.45 59.88 61.37 62.51 64.22 65.68 66.24 67.64 68.11 66.64 66.62 66.96 66.29 67.60 67.48 68.43 68.94 68.20 68.91 68.63 68.90 68.52 67.84 68.09 68.65 66.32 64.22 61.88 62.27 65.04 66.79 66.38 63.43 62.68 63.29 62.97 60.46 60.82 61.02 65.15 64.41 60.60 59.12
59.41 60.08 61.19 61.56 61.66 62.29 62.72 64.59 65.45 67.16 66.20 65.93 65.91 66.47 67.28 67.01 68.61 68.72 68.41 67.77 67.95 66.03 65.28 66.35 65.60 63.79 60.58 59.65 60.01 61.93 66.62 62.11 58.93 58.75 58.60 58.92 58.92 57.73 59.49 66.27 61.69 59.12 57.60
61.62 61.36 61.97 61.17 60.28 60.46 60.98 62.80 63.79 65.88 67.93 66.08 66.52 67.23 67.68 67.84 68.07 68.16 66.87 66.50 65.38 63.75 62.71 60.90 60.35 59.61 59.29 56.87 58.04 60.66 66.03 59.83 57.81 58.64 58.54 57.79 56.09 55.13 56.03 63.36 60.75 60.12 60.11
61.21 61.31 61.11 60.75 61.63 62.82 62.86 64.90 65.01 65.15 66.46 67.82 68.36 68.61 68.29 67.00 66.28 65.22 64.67 63.41 61.98 60.69 59.61 58.14 57.80 56.83 56.94 56.15 55.00 57.76 64.51 61.51 60.01 58.77 57.34 56.59 55.21 53.58 54.23 56.96 60.83 60.07 60.93
60.23 59.65 61.11 60.97 61.33 62.58 63.76 63.29 62.71 64.01 65.22 65.90 66.32 66.12 66.16 66.16 64.92 63.21 62.36 61.66 60.53 59.05 57.50 56.31 55.81 55.89 55.71 54.43 54.22 55.22 57.70 59.85 58.76 56.57 56.09 55.49 52.60 51.84 53.23 56.47 54.93 56.25 58.93
59.35 60.20 60.74 60.26 60.64 61.33 61.82 61.46 61.68 63.02 64.29 64.09 63.27 63.59 63.21 63.07 63.05 61.80 60.74 59.89 59.49 58.18 57.30 56.61 55.74 55.68 56.49 55.98 53.68 54.05 55.29 56.35 56.75 56.85 54.89 53.01 51.78 51.86 53.33 54.50 55.00 56.11 57.36
58.63 59.23 58.90 59.35 59.39 60.35 61.03 60.98 61.14 61.98 62.33 61.03 60.47 59.28 58.18 56.96 59.08 58.21 60.47 60.21 59.99 59.25 58.75 56.74 56.04 54.14 52.45 51.91 51.77 52.57 54.08 55.00 55.65 55.71 55.89 54.75 54.12 53.86 54.37 54.69 54.18 54.65 53.87
58.57 58.90 59.77 59.48 58.82 60.17 60.08 60.82 60.87 60.30 59.44 58.88 59.12 57.20 56.98 55.75 51.32 48.94 51.47 53.35 50.93 53.46 56.43 55.21 54.17 51.79 50.69 49.96 47.31 48.28 50.71 51.23 50.71 52.15 52.58 53.90 53.26 52.21 51.99 51.41 50.60 49.97 49.30
57.65 57.75 59.42 58.84 58.05 58.57 60.34 59.91 59.92 59.51 58.38 56.94 56.51 56.57 54.92 53.50 52.11 51.18 49.88 46.89 45.98 45.65 46.75 49.15 50.49 48.07 47.29 44.98 43.00 42.14 42.44 44.35 47.65 49.83 48.84 48.37 48.53 47.79 47.27 46.98 45.93 45.15 46.19
MSLP
1013.26 1013.75 1014.54 1014.81 1015.16 1015.62 1015.94 1016.23 1016.50 1016.87 1017.53 1017.89 1018.04 1018.25 1018.09 1017.85 1018.04 1017.96 1018.00 1017.98 1018.26 1018.32 1018.22 1018.62 1018.70 1018.54 1018.63 1018.80 1018.72 1018.37 1018.50 1018.68 1018.65 1018.88 1018.58 1018.42 1017.85 1017.95 1017.90 1017.38 1017.25 1017.07 1016.78
1013.13 1013.62 1014.23 1014.59 1014.82 1015.13 1015.60 1016.13 1016.47 1016.57 1017.05 1017.21 1017.43 1017.57 1017.77 1017.66 1017.80 1017.85 1018.10 1017.84 1018.06 1018.16 1018.30 1018.42 1018.72 1018.41 1018.65 1018.72 1018.59 1018.59 1019.02 1019.13 1019.03 1019.42 1019.53 1019.32 1018.92 1018.14 1017.92 1018.19 1017.56 1017.04 1016.70
1012.89 1013.43 1014.01 1014.19 1014.53 1015.04 1015.34 1015.85 1016.15 1016.23 1016.51 1017.01 1017.32 1017.50 1017.67 1017.80 1017.99 1017.97 1018.28 1017.97 1017.90 1018.04 1018.10 1018.41 1018.56 1018.32 1018.44 1018.70 1018.53 1018.56 1018.82 1019.17 1019.29 1019.36 1019.34 1019.75 1019.53 1019.12 1018.03 1017.90 1017.73 1017.13 1016.84
1012.73 1013.15 1013.54 1013.89 1014.29 1014.39 1014.89 1015.46 1015.88 1016.16 1016.37 1016.74 1016.91 1017.14 1017.44 1017.87 1017.76 1017.93 1017.94 1018.00 1017.92 1017.98 1018.10 1018.25 1018.50 1018.40 1018.44 1018.56 1018.49 1018.58 1018.56 1018.79 1019.64 1019.52 1019.18 1019.16 1019.45 1019.55 1019.20 1017.78 1017.70 1016.97 1016.95
1012.37 1012.76 1012.86 1013.22 1013.61 1014.14 1014.48 1015.06 1015.58 1015.93 1016.20 1016.38 1016.56 1016.92 1017.37 1017.58 1017.59 1017.62 1017.81 1017.98 1017.87 1017.91 1018.10 1018.22 1018.49 1018.57 1018.52 1018.44 1018.37 1018.27 1018.40 1018.85 1019.18 1019.12 1019.21 1019.41 1019.57 1019.46 1019.80 1019.36 1017.83 1017.10 1017.08
1012.00 1012.13 1012.50 1012.94 1013.50 1013.94 1014.47 1014.81 1015.40 1015.73 1016.03 1016.14 1016.40 1016.57 1017.01 1017.40 1017.66 1017.76 1017.98 1018.08 1018.11 1018.21 1018.14 1018.14 1018.26 1018.29 1018.45 1018.42 1018.19 1018.21 1018.42 1018.71 1018.79 1018.86 1019.05 1019.21 1019.24 1019.36 1019.72 1019.86 1018.97 1018.48 1017.40
1011.97 1011.94 1012.33 1012.54 1013.21 1013.73 1014.19 1014.65 1015.15 1015.60 1015.95 1016.05 1016.15 1016.45 1016.70 1017.01 1017.28 1017.50 1017.58 1017.85 1017.99 1017.97 1017.76 1017.85 1017.98 1018.01 1017.98 1018.05 1018.01 1018.28 1018.38 1018.63 1018.75 1018.81 1018.95 1018.83 1018.81 1018.91 1019.30 1019.46 1019.07 1018.74 1017.91
1012.33 1012.26 1012.00 1012.03 1012.61 1013.11 1013.78 1014.21 1014.68 1015.18 1015.69 1015.89 1016.00 1016.10 1016.38 1016.82 1016.91 1017.03 1017.14 1017.28 1017.38 1017.41 1017.30 1017.52 1017.65 1017.67 1017.77 1017.75 1017.90 1018.20 1018.35 1018.49 1018.46 1018.59 1018.65 1018.42 1018.34 1018.58 1018.70 1018.76 1018.84 1018.63 1018.37
1011.81 1012.00 1012.03 1011.99 1011.88 1012.49 1012.88 1013.47 1014.01 1014.51 1014.98 1015.35 1015.77 1016.09 1016.10 1016.49 1016.74 1016.87 1017.01 1017.04 1017.04 1017.18 1017.26 1017.16 1017.47 1017.49 1017.56 1017.52 1017.70 1018.16 1018.35 1018.34 1018.28 1018.26 1018.23 1018.29 1018.19 1018.37 1018.35 1018.35 1018.23 1018.31 1018.67
1011.78 1011.75 1011.53 1011.60 1011.38 1011.40 1012.09 1012.78 1013.39 1013.76 1014.10 1014.76 1015.23 1015.64 1015.87 1015.97 1016.22 1016.57 1016.75 1016.90 1016.93 1017.03 1017.27 1017.26 1017.40 1017.43 1017.30 1017.33 1017.63 1017.89 1018.10 1018.23 1018.19 1017.99 1018.03 1018.32 1018.35 1018.25 1018.11 1017.99 1017.92 1018.02 1018.22
1011.50 1011.57 1011.61 1011.34 1010.96 1010.92 1011.33 1011.90 1012.79 1013.24 1013.84 1014.26 1014.80 1015.20 1015.51 1015.72 1015.89 1016.10 1016.24 1016.38 1016.59 1016.91 1017.24 1017.24 1017.42 1017.39 1017.39 1017.42 1017.57 1017.77 1017.92 1018.07 1018.05 1018.06 1018.14 1018.11 1018.09 1017.98 1017.84 1017.73 1017.75 1017.82 1017.99
1011.69 1011.80 1011.85 1011.65 1010.97 1010.87 1010.98 1011.54 1012.26 1012.82 1013.00 1013.46 1014.12 1014.64 1015.11 1015.51 1015.75 1015.84 1015.99 1016.17 1016.38 1016.69 1016.93 1017.11 1017.20 1017.25 1017.27 1017.27 1017.35 1017.53 1017.67 1017.82 1018.04 1018.06 1018.12 1018.06 1017.92 1017.76 1017.69 1017.70 1017.68 1017.75 1017.78
1011.39 1011.78 1011.77 1011.89 1011.62 1011.32 1011.11 1011.22 1011.72 1012.17 1012.61 1013.16 1013.72 1014.18 1014.64 1015.12 1015.44 1015.60 1015.83 1016.03 1016.23 1016.40 1016.65 1016.84 1017.04 1017.03 1017.04 1017.15 1017.23 1017.27 1017.44 1017.49 1017.61 1017.65 1017.67 1017.60 1017.65 1017.66 1017.64 1017.55 1017.59 1017.61 1017.55
1012.10 1012.31 1012.40 1012.03 1011.86 1011.72 1011.53 1011.45 1011.64 1011.96 1012.41 1012.98 1013.45 1013.88 1014.05 1014.46 1014.94 1015.19 1015.39 1015.63 1015.73 1015.89 1016.02 1016.14 1016.33 1016.53 1016.62 1016.78 1016.93 1016.94 1016.96 1017.03 1017.16 1017.18 1017.25 1017.26 1017.34 1017.44 1017.41 1017.41 1017.42 1017.41 1017.40
1012.52 1012.45 1012.71 1012.45 1012.01 1011.90 1012.02 1012.12 1012.33 1012.18 1012.29 1012.56 1013.14 1013.44 1013.66 1013.96 1014.42 1014.77 1014.92 1015.10 1015.23 1015.36 1015.43 1015.60 1015.76 1015.95 1016.18 1016.27 1016.43 1016.56 1016.65 1016.77 1016.84 1016.94 1016.99 1017.01 1017.10 1017.22 1017.23 1017.36 1017.27 1017.39 1017.35
1012.86 1012.68 1012.59 1012.63 1012.55 1012.21 1012.45 1012.50 1012.65 1012.79 1012.75 1012.50 1012.74 1013.09 1013.55 1013.60 1014.02 1014.24 1014.48 1014.71 1014.88 1015.00 1015.21 1015.42 1015.52 1015.69 1015.74 1015.86 1016.03 1016.37 1016.63 1016.70 1016.77 1016.87 1016.80 1016.94 1017.02 1017.14 1017.23 1017.23 1017.25 1017.24 1017.36
1013.08 1012.99 1012.77 1012.68 1012.52 1012.51 1012.36 1012.71 1012.49 1013.07 1013.11 1012.70 1012.64 1013.10 1013.33 1013.72 1013.80 1013.84 1014.00 1014.13 1014.44 1014.75 1014.96 1015.09 1015.37 1015.65 1015.90 1016.04 1016.16 1016.51 1016.72 1016.90 1016.89 1017.01 1017.06 1016.97 1017.20 1017.28 1017.38 1017.34 1017.32 1017.29 1017.18
1012.98 1013.12 1013.08 1012.84 1012.63 1012.01 1012.27 1012.10 1012.58 1012.20 1012.02 1012.65 1012.49 1012.63 1012.97 1013.41 1013.78 1014.25 1013.72 1013.84 1013.97 1014.47 1015.10 1015.32 1015.57 1015.98 1016.52 1016.53 1016.59 1016.69 1016.79 1017.03 1017.29 1017.40 1017.47 1017.60 1017.78 1017.77 1017.61 1017.48 1017.52 1017.67 1017.67
1013.16 1013.21 1013.43 1013.53 1013.33 1012.75 1012.35 1012.22 1012.02 1012.48 1011.98 1011.71 1011.79 1011.90 1011.92 1012.86 1013.78 1014.07 1013.60 1013.67 1014.17 1014.67 1015.17 1015.62 1016.07 1016.42 1016.84 1016.72 1016.62 1016.73 1016.83 1017.30 1017.78 1017.99 1018.04 1018.11 1018.12 1018.02 1017.67 1017.62 1017.73 1017.99 1018.19
1013.03 1013.33 1013.49 1013.50 1013.19 1012.66 1012.48 1012.16 1012.34 1011.89 1011.67 1011.79 1012.05 1012.16 1012.47 1012.81 1013.69 1013.87 1013.77 1013.99 1014.68 1015.29 1015.82 1016.27 1016.75 1016.78 1017.05 1017.03 1016.91 1016.70 1016.89 1017.53 1018.01 1018.30 1018.51 1018.65 1018.63 1018.29 1017.97 1017.77 1018.03 1018.27 1018.46
1013.31 1013.56 1013.71 1013.77 1013.49 1013.29 1012.80 1012.24 1012.07 1012.20 1012.22 1011.96 1011.80 1012.15 1012.49 1012.86 1013.32 1013.66 1013.87 1013.85 1014.88 1015.56 1016.09 1016.61 1017.21 1017.24 1017.33 1017.18 1016.97 1017.01 1017.06 1017.52 1018.12 1018.63 1018.88 1018.99 1018.91 1018.72 1018.45 1018.35 1018.41 1018.59 1018.66
1013.84 1013.91 1013.74 1013.64 1013.43 1013.08 1012.89 1012.69 1012.64 1012.57 1012.31 1012.22 1012.22 1012.13 1012.56 1013.04 1013.41 1013.96 1014.05 1013.74 1015.63 1015.09 1016.52 1017.25 1017.61 1017.97 1017.95 1017.68 1017.48 1017.39 1017.65 1017.89 1018.41 1018.95 1019.27 1019.41 1019.44 1019.35 1019.15 1018.98 1018.92 1018.86 1019.01
1013.71 1013.70 1013.71 1013.74 1013.75 1013.48 1013.21 1013.03 1012.99 1012.85 1012.76 1012.73 1012.83 1012.72 1013.38 1013.61 1013.67 1013.85 1014.79 1014.77 1015.77 1016.53 1017.21 1017.82 1018.19 1018.55 1018.74 1018.55 1018.44 1018.17 1018.36 1018.76 1019.08 1019.46 1019.62 1019.68 1019.78 1019.80 1019.71 1019.66 1019.54 1019.52 1019.66
1013.50 1013.50 1013.62 1013.88 1013.81 1013.97 1013.67 1013.51 1013.55 1013.36 1013.28 1013.49 1013.81 1014.20 1014.35 1014.54 1015.06 1015.57 1015.62 1016.22 1016.80 1017.23 1017.81 1017.99 1018.31 1018.76 1019.26 1019.52 1019.55 1019.26 1019.24 1019.45 1019.64 1019.84 1019.82 1019.91 1020.07 1020.22 1020.25 1020.17 1020.13 1020.19 1020.20
1013.07 1013.16 1013.38 1013.73 1013.97 1013.92 1013.85 1014.14 1014.14 1013.97 1014.11 1014.27 1014.72 1014.87 1015.20 1015.74 1016.36 1016.97 1017.05 1017.01 1017.60 1017.52 1017.73 1018.09 1018.37 1019.00 1019.74 1020.04 1020.03 1019.85 1020.00 1020.01 1020.19 1020.21 1020.27 1020.56 1020.71 1020.86 1020.96 1021.13 1021.18 1021.09 1020.82
1012.87 1013.02 1013.31 1013.64 1013.95 1014.09 1014.15 1014.08 1014.24 1014.40 1014.48 1014.77 1015.33 1015.77 1016.26 1016.37 1017.43 1017.33 1017.71 1017.50 1017.99 1018.10 1018.23 1018.37 1018.87 1019.40 1019.49 1019.99 1019.96 1020.01 1020.15 1020.31 1020.40 1020.81 1021.11 1021.24 1021.38 1021.56 1021.56 1021.68 1021.97 1021.90 1021.82
Wind_Speed
8 13 14 13 12 8 7 7 7 6 5 2 2 1 3 2 2 4 6 6 5 5 5 3 3 4 3 3 3 2 4 5 4 2 3 2 4 1 4 4 4 4 4
11 10 13 13 13 13 10 8 9 9 7 4 3 3 2 2 1 2 0 4 5 5 5 4 2 2 2 3 2 3 1 2 3 2 2 4 4 4 1 3 4 5 3
13 12 14 15 13 12 10 11 10 10 8 7 3 2 2 1 2 1 2 4 5 4 3 5 5 3 2 2 1 2 3 3 3 3 3 2 1 3 0 3 4 4 1
9 12 14 14 14 13 10 9 8 7 7 9 5 5 4 3 3 3 3 4 5 4 5 4 4 3 2 3 2 2 2 4 3 1 3 2 3 2 5 1 4 2 4
14 15 17 18 15 13 12 8 8 7 6 7 7 5 4 2 1 1 3 3 3 3 4 4 5 3 3 3 4 3 3 3 3 2 2 0 0 2 1 4 7 2 2
15 16 14 13 12 10 10 9 9 7 7 7 7 7 8 5 3 2 3 3 3 4 6 5 5 4 4 4 2 2 3 2 1 1 2 2 2 1 1 2 3 2 4
6 12 15 14 14 12 12 10 10 9 7 7 7 8 7 7 7 6 4 5 3 3 5 5 6 4 3 4 2 2 1 3 3 3 3 3 2 2 2 2 3 2 3
5 7 15 16 15 15 14 12 13 12 9 8 8 7 8 5 5 5 4 4 4 4 3 5 5 5 6 4 3 1 3 3 2 4 3 2 2 3 3 3 3 2 2
7 11 9 11 13 14 16 16 14 14 12 11 6 7 7 7 6 7 4 3 3 3 5 6 6 5 4 4 3 3 3 3 3 4 3 1 1 2 3 3 2 4 1
8 6 6 12 16 18 16 16 15 16 13 10 8 7 8 8 7 6 7 6 4 3 4 4 5 5 5 4 3 2 3 2 2 2 2 1 2 3 3 3 2 1 3
3 4 2 4 14 16 17 18 15 15 12 12 10 9 8 8 6 6 6 6 5 6 6 5 5 5 5 4 4 4 3 4 4 3 3 5 3 3 3 2 1 1 2
4 3 1 4 3 12 13 15 14 14 14 13 12 11 9 7 7 6 7 6 6 5 6 6 6 6 5 4 5 5 3 4 4 5 3 5 3 4 1 2 3 2 2
4 5 4 3 3 2 7 12 14 15 12 11 12 11 10 9 9 8 6 6 7 7 6 6 6 6 6 6 5 5 5 5 5 5 4 5 3 4 2 2 3 3 2
3 4 1 3 4 4 5 2 6 7 9 9 10 11 11 10 9 8 8 9 8 8 7 7 7 6 6 5 5 5 5 4 4 5 5 5 4 5 4 4 4 4 3
2 6 4 2 5 5 5 6 4 3 5 8 8 10 10 9 10 9 10 10 8 8 7 6 6 6 5 4 6 5 4 4 5 5 5 5 5 5 5 2 3 3 2
2 1 6 4 1 5 3 4 4 3 3 5 4 3 4 7 9 9 8 7 8 7 6 6 6 6 4 7 7 5 2 4 4 5 5 4 2 2 3 6 4 3 3
4 3 4 3 4 5 2 3 5 4 4 4 3 1 1 4 9 9 8 8 7 5 7 6 6 5 2 4 3 1 3 4 2 2 4 0 3 4 4 4 0 5 6
4 3 1 4 1 3 2 3 5 4 3 6 3 3 1 4 8 9 10 7 5 6 4 3 3 5 4 6 5 3 2 2 4 4 5 4 4 5 5 3 3 5 6
2 2 2 1 2 4 2 2 5 9 10 10 10 6 6 7 7 9 8 4 4 6 6 4 4 4 3 7 6 4 3 4 5 5 6 5 5 11 11 2 4 5 5
3 2 1 2 2 4 4 3 2 1 3 4 5 4 5 5 7 6 4 5 7 6 5 7 5 7 5 8 5 2 3 5 4 4 5 10 7 10 12 4 3 4 3
6 4 3 1 4 5 5 2 4 2 2 2 6 7 7 8 6 5 6 9 8 7 7 7 5 5 4 5 7 6 3 5 4 3 2 3 6 6 8 8 4 3 5
4 3 3 4 5 5 1 4 4 1 4 5 6 6 7 5 6 8 5 9 6 8 6 6 5 4 5 9 9 10 9 8 5 3 2 3 7 9 9 6 6 8 8
4 3 4 4 4 4 6 3 1 4 6 6 6 9 8 6 6 8 5 9 5 5 5 4 5 3 4 5 11 12 11 10 6 4 5 7 8 9 7 11 11 7 4
4 4 5 4 4 4 3 5 5 5 5 8 7 7 8 8 7 5 4 5 5 5 5 5 4 4 3 3 4 4 5 8 6 5 5 7 7 8 6 5 6 4 4
6 5 6 5 3 3 4 3 2 3 5 7 5 7 7 6 6 6 3 4 2 1 4 3 5 5 3 2 3 4 4 4 4 5 4 3 3 4 4 5 5 4 5
6 5 6 6 4 2 4 5 4 3 5 6 4 4 4 5 3 5 6 15 10 6 6 8 4 3 10 9 7 8 8 8 5 4 3 3 3 3 2 3 3 3 5
Wind_Direction
181 175 178 181 172 173 175 191 170 171 148 148 146 83 223 210 172 186 203 164 180 173 150 118 141 165 179 157 261 73 71 25 22 34 325 15 310 200 263 255 279 326 331
165 172 168 180 183 183 180 185 182 181 174 155 167 166 177 225 119 165 259 178 200 184 165 159 152 189 120 89 71 81 83 63 13 126 50 360 335 291 181 295 292 258 300
174 171 173 183 187 186 187 185 183 184 170 154 131 97 57 58 102 316 182 241 234 184 165 172 183 209 76 102 187 109 114 129 14 355 132 62 299 337 259 234 252 243 328
176 176 176 184 196 191 189 184 173 177 185 165 153 157 176 170 209 191 188 224 228 182 177 171 185 189 143 220 212 162 147 101 186 300 64 47 120 105 337 300 214 192 234
169 184 186 186 197 188 188 181 166 172 189 167 167 158 172 200 235 192 215 235 241 215 214 212 210 200 197 216 215 159 142 169 150 179 120 25 194 100 106 300 325 20 170
180 187 190 180 192 186 186 175 175 183 193 173 176 173 174 180 188 227 219 197 224 215 220 217 217 198 225 224 216 149 175 192 220 138 165 179 165 132 173 276 292 275 315
193 173 186 185 187 183 188 182 177 188 200 193 175 181 193 185 197 212 213 179 188 226 233 209 215 215 233 241 221 182 217 208 198 179 220 212 189 151 182 182 278 273 305
237 204 196 193 192 183 184 187 184 191 199 199 197 184 186 191 204 218 203 212 203 216 234 208 211 212 215 214 238 241 246 233 218 202 233 231 229 202 200 201 198 332 312
205 206 217 202 193 190 186 189 188 199 195 202 189 203 186 191 202 209 208 231 220 209 215 206 191 205 222 207 204 221 246 239 227 231 218 172 291 228 240 228 206 154 309
207 174 191 211 201 197 192 190 195 197 193 195 193 202 203 195 196 185 208 220 210 190 198 198 211 231 232 228 226 251 249 220 249 276 284 226 240 250 233 239 236 164 165
194 164 336 308 210 202 195 192 194 195 193 192 195 200 205 207 195 191 200 206 192 194 208 209 239 235 235 235 221 230 235 243 283 285 263 275 264 274 266 234 246 227 163
236 179 314 331 340 204 198 194 194 195 198 194 191 204 207 202 202 207 193 192 199 199 207 211 224 226 236 235 226 232 230 232 245 257 249 264 270 286 275 260 255 231 214
138 166 126 63 13 350 207 187 192 209 197 189 195 197 205 207 208 205 196 198 192 201 211 215 223 227 222 223 225 220 225 230 243 251 251 266 257 279 263 248 266 267 254
138 151 187 121 91 50 51 91 187 185 186 188 190 203 202 208 214 212 197 203 208 211 208 207 213 223 231 234 240 234 240 251 256 261 257 262 261 263 274 259 249 251 255
107 166 163 143 121 87 61 63 37 95 162 169 183 207 209 206 213 210 210 211 208 214 215 212 218 216 216 222 232 238 243 259 266 259 264 251 254 274 288 281 280 270 253
205 32 177 163 131 112 130 142 76 13 211 139 155 132 247 207 217 211 207 205 217 214 201 214 214 220 230 230 233 219 234 281 268 262 253 233 105 353 8 352 285 253 249
228 153 125 139 203 217 198 161 157 185 218 113 94 34 216 253 240 222 207 206 204 196 212 210 198 215 32 15 118 277 188 238 255 285 281 247 60 4 334 317 67 60 30
227 225 276 119 137 80 106 169 197 185 240 213 156 142 335 324 254 240 213 209 169 171 188 157 121 103 65 33 39 350 202 91 51 45 31 30 359 355 329 316 79 46 22
192 210 218 220 218 213 203 217 196 211 210 205 192 188 172 284 289 246 217 148 117 110 99 100 97 112 71 9 7 348 131 97 63 45 37 25 12 353 340 253 125 93 80
109 148 9 324 262 286 263 223 262 299 224 199 183 135 149 173 222 217 148 107 104 107 107 81 68 66 60 10 351 34 131 114 100 73 55 45 39 22 11 73 108 101 111
92 98 85 351 298 270 258 128 92 91 63 91 133 139 117 112 102 84 137 108 107 108 98 93 66 71 55 40 38 46 94 127 110 84 60 37 37 43 60 69 76 75 85
93 91 72 46 352 339 157 100 93 40 95 74 79 81 96 121 115 122 88 86 108 117 104 102 83 63 52 36 43 65 71 96 106 99 72 58 47 39 36 41 64 101 111
142 119 101 66 27 12 8 63 62 99 107 102 80 88 75 62 89 99 132 101 98 89 106 115 102 75 37 50 45 61 73 69 85 89 100 80 57 47 40 40 45 47 54
164 142 100 64 60 40 25 36 24 354 79 90 93 87 86 80 64 63 78 110 120 134 146 133 117 95 68 51 26 51 68 77 87 101 78 86 84 74 59 47 44 48 66
169 165 129 113 87 83 83 63 110 101 83 86 82 97 97 93 85 55 40 88 17 18 150 143 137 137 141 130 68 72 76 66 67 77 52 49 39 53 43 39 37 34 45
162 141 123 117 103 87 106 115 110 104 102 108 110 104 110 105 99 116 98 54 37 32 83 101 120 60 110 126 111 97 87 66 74 54 62 54 52 70 74 79 51 29 47